Le nostre stazioni meteo in Italia

Pubblicità
Il mio iltempo24.it
Termoli, Italia (16232): Temperatura & dewpoint: 17.07.2019 06:00:00 - 23.07.2019 06:00:00 (CEST)Termoli, Italia (16232): velocità del vento: 17.07.2019 06:00:00 - 23.07.2019 06:00:00 (CEST)Termoli, Italia (16232): direzione del vento: 17.07.2019 06:00:00 - 23.07.2019 06:00:00 (CEST)Termoli, Italia (16232): reduced air pressure: 17.07.2019 06:00:00 - 23.07.2019 06:00:00 (CEST)Termoli, Italia (16232): visibility: 17.07.2019 06:00:00 - 23.07.2019 06:00:00 (CEST)Termoli, Italia (16232): ore di luce: 17.07.2019 06:00:00 - 23.07.2019 06:00:00 (CEST)
Data & Tempo tt [°C] td [°C] ff [km/h] ff [kn] dd ppp [hPa] vv [km] sd [min]
23.07.2019 06:00:00 - - - - - - - -
23.07.2019 05:00:00 - - - - - - - -
23.07.2019 04:00:00 - - - - - - - -
23.07.2019 03:00:00 - - - - - - - -
23.07.2019 02:00:00 - - - - - - - -
23.07.2019 01:00:00 - - - - - - - -
23.07.2019 00:00:00 - - - - - - - -
22.07.2019 23:00:00 - - - - - - - -
22.07.2019 22:00:00 - - - - - - - -
22.07.2019 21:00:00 - - - - - - - -
22.07.2019 20:00:00 30,6 28,8 15 8 O 1018,4 10 6
22.07.2019 19:00:00 - - - - - - - -
22.07.2019 18:00:00 - - - - - - - -
22.07.2019 17:00:00 32,0 29,6 16 9 NO 1019,2 20 60
22.07.2019 16:00:00 - - - - - - - -
22.07.2019 15:00:00 - - - - - - - -
22.07.2019 14:00:00 31,2 29,0 16 9 NNO 1019,8 20 60
22.07.2019 13:00:00 - - - - - - - -
22.07.2019 12:00:00 - - - - - - - -
22.07.2019 11:00:00 30,0 28,2 15 8 NO 1019,5 20 60
22.07.2019 10:00:00 - - - - - - - -
22.07.2019 09:00:00 - - - - - - - -
22.07.2019 08:00:00 27,6 22,1 9 5 ONO 1019,4 20 -
22.07.2019 07:00:00 - - - - - - - -
22.07.2019 06:00:00 - - - - - - - -
22.07.2019 05:00:00 - - - - - - - -
22.07.2019 04:00:00 - - - - - - - -
22.07.2019 03:00:00 - - - - - - - -
22.07.2019 02:00:00 - - - - - - - -
22.07.2019 01:00:00 - - - - - - - -
22.07.2019 00:00:00 - - - - - - - -
21.07.2019 23:00:00 - - - - - - - -
21.07.2019 22:00:00 - - - - - - - -
21.07.2019 21:00:00 - - - - - - - -
21.07.2019 20:00:00 29,8 24,9 9 5 SE 1018,0 10 18
21.07.2019 19:00:00 - - - - - - - -
21.07.2019 18:00:00 - - - - - - - -
21.07.2019 17:00:00 31,6 26,2 11 6 ESE 1018,1 10 60
21.07.2019 16:00:00 - - - - - - - -
21.07.2019 15:00:00 - - - - - - - -
21.07.2019 14:00:00 32,2 24,3 8 4 NE 1018,8 20 60
21.07.2019 13:00:00 - - - - - - - -
21.07.2019 12:00:00 - - - - - - - -
21.07.2019 11:00:00 29,8 21,7 4 2 NE 1019,2 20 60
21.07.2019 10:00:00 - - - - - - - -
21.07.2019 09:00:00 - - - - - - - -
21.07.2019 08:00:00 26,8 19,9 2 1 S 1019,1 20 36
21.07.2019 07:00:00 - - - - - - - -
21.07.2019 06:00:00 - - - - - - - -
21.07.2019 05:00:00 - - - - - - - -
21.07.2019 04:00:00 - - - - - - - -
21.07.2019 03:00:00 - - - - - - - -
21.07.2019 02:00:00 - - - - - - - -
21.07.2019 01:00:00 - - - - - - - -
21.07.2019 00:00:00 - - - - - - - -
20.07.2019 23:00:00 - - - - - - - -
20.07.2019 22:00:00 - - - - - - - -
20.07.2019 21:00:00 - - - - - - - -
20.07.2019 20:00:00 28,0 23,8 13 7 ESE 1017,1 20 30
20.07.2019 19:00:00 - - - - - - - -
20.07.2019 18:00:00 - - - - - - - -
20.07.2019 17:00:00 30,6 23,0 18 10 E 1017,3 20 60
20.07.2019 16:00:00 - - - - - - - -
20.07.2019 15:00:00 - - - - - - - -
20.07.2019 14:00:00 30,6 20,8 11 6 E 1017,9 20 60
20.07.2019 13:00:00 - - - - - - - -
20.07.2019 12:00:00 - - - - - - - -
20.07.2019 11:00:00 27,0 22,8 4 2 NNE 1018,2 20 60
20.07.2019 10:00:00 - - - - - - - -
20.07.2019 09:00:00 - - - - - - - -
20.07.2019 08:00:00 24,0 19,1 0 0 N 1017,1 20 30
20.07.2019 07:00:00 - - - - - - - -
20.07.2019 06:00:00 - - - - - - - -
20.07.2019 05:00:00 - - - - - - - -
20.07.2019 04:00:00 - - - - - - - -
20.07.2019 03:00:00 - - - - - - - -
20.07.2019 02:00:00 - - - - - - - -
20.07.2019 01:00:00 - - - - - - - -
20.07.2019 00:00:00 - - - - - - - -
19.07.2019 23:00:00 - - - - - - - -
19.07.2019 22:00:00 - - - - - - - -
19.07.2019 21:00:00 - - - - - - - -
19.07.2019 20:00:00 30,0 20,6 0 0 N 1015,0 20 30
19.07.2019 19:00:00 - - - - - - - -
19.07.2019 18:00:00 - - - - - - - -
19.07.2019 17:00:00 31,0 16,6 5 3 ENE 1014,9 20 60
19.07.2019 16:00:00 - - - - - - - -
19.07.2019 15:00:00 - - - - - - - -
19.07.2019 14:00:00 29,0 22,7 4 2 ENE 1016,1 20 60
19.07.2019 13:00:00 - - - - - - - -
19.07.2019 12:00:00 - - - - - - - -
19.07.2019 11:00:00 26,0 24,3 9 5 N 1015,0 20 60
19.07.2019 10:00:00 - - - - - - - -
19.07.2019 09:00:00 - - - - - - - -
19.07.2019 08:00:00 24,0 20,7 9 5 ONO 1014,1 20 30
19.07.2019 07:00:00 - - - - - - - -
19.07.2019 06:00:00 - - - - - - - -
19.07.2019 05:00:00 - - - - - - - -
19.07.2019 04:00:00 - - - - - - - -
19.07.2019 03:00:00 - - - - - - - -
19.07.2019 02:00:00 - - - - - - - -
19.07.2019 01:00:00 - - - - - - - -
19.07.2019 00:00:00 - - - - - - - -
18.07.2019 23:00:00 - - - - - - - -
18.07.2019 22:00:00 - - - - - - - -
18.07.2019 21:00:00 - - - - - - - -
18.07.2019 20:00:00 26,8 22,0 9 5 ESE 1011,1 20 0
18.07.2019 19:00:00 - - - - - - - -
18.07.2019 18:00:00 - - - - - - - -
18.07.2019 17:00:00 29,0 16,9 22 12 E 1010,4 20 60
18.07.2019 16:00:00 - - - - - - - -
18.07.2019 15:00:00 - - - - - - - -
18.07.2019 14:00:00 29,0 21,0 11 6 O 1011,2 20 60
18.07.2019 13:00:00 - - - - - - - -
18.07.2019 12:00:00 - - - - - - - -
18.07.2019 11:00:00 26,8 19,2 5 3 ENE 1011,4 20 60
18.07.2019 10:00:00 - - - - - - - -
18.07.2019 09:00:00 - - - - - - - -
18.07.2019 08:00:00 21,0 16,2 0 0 N 1011,1 20 48
18.07.2019 07:00:00 - - - - - - - -
18.07.2019 06:00:00 - - - - - - - -
18.07.2019 05:00:00 - - - - - - - -
18.07.2019 04:00:00 - - - - - - - -
18.07.2019 03:00:00 - - - - - - - -
18.07.2019 02:00:00 - - - - - - - -
18.07.2019 01:00:00 - - - - - - - -
18.07.2019 00:00:00 - - - - - - - -
17.07.2019 23:00:00 - - - - - - - -
17.07.2019 22:00:00 - - - - - - - -
17.07.2019 21:00:00 - - - - - - - -
17.07.2019 20:00:00 27,4 18,7 2 1 NNE 1011,3 20 42
17.07.2019 19:00:00 - - - - - - - -
17.07.2019 18:00:00 - - - - - - - -
17.07.2019 17:00:00 25,6 18,8 13 7 N 1012,0 20 60
17.07.2019 16:00:00 - - - - - - - -
17.07.2019 15:00:00 - - - - - - - -
17.07.2019 14:00:00 27,6 18,0 21 11 NNO 1012,6 25 60
17.07.2019 13:00:00 - - - - - - - -
17.07.2019 12:00:00 - - - - - - - -
17.07.2019 11:00:00 25,0 20,9 28 15 NO 1012,3 20 60
17.07.2019 10:00:00 - - - - - - - -
17.07.2019 09:00:00 - - - - - - - -
17.07.2019 08:00:00 23,4 18,7 26 14 ONO 1012,2 20 24
17.07.2019 07:00:00 - - - - - - - -
17.07.2019 06:00:00 - - - - - - - -

tt = Temperatura
td = dewpoint
ff = velocità del vento
dd = direzione del vento
ppp = reduced air pressure
vv = visibility
sd = ore di luce

Stazioni seguenti

WeatherPro
AMSI
MeteoEarth